{"data":{"norad_id":2872,"epoch":"2026-05-25T03:29:42.857952Z","epoch_age_seconds":61677,"freshness":"FRESH","line1":"1 02872U 67053F   26145.14563493  .00000067  00000+0  82304-4 0  9996","line2":"2 02872  69.9752  50.4447 0005828 167.8734 192.2515 13.99596609  6987","mean_motion":13.99596609,"eccentricity":0.0005828,"inclination_deg":69.9752,"raan_deg":50.4447,"arg_perigee_deg":167.8734,"mean_anomaly_deg":192.2515,"bstar":8.2304e-5,"rev_number":698,"period_min":102.88678828887,"perigee_km":890.95345220585,"apogee_km":899.43124489453,"semimajor_km":7273.3293485502,"source":"CELESTRAK","updated_at":"2026-05-25T13:37:54.954814Z"}}